Location: Eymir
(36.7333°N, 29.7833°E)
Time: 17:11:12
(UTC+00:00)

CBERS-1 - Pass Details

Date: 14 January 2026
Orbit: 765 x 772 km, 98.9° (Epoch: 17 February)

Event Time Altitude Azimuth Distance (km) Brightness Sun altitude
Rises 04:13:44 0° 10° (N) 3,238 7.2 -11.8°
Reaches altitude 10° 04:16:03 10° 9° (N) 2,308 6.4 -11.4°
Maximum altitude 04:21:06 71° 286° (WNW) 810 3.9 -10.4°
Drops below altitude 10° 04:26:08 10° 203° (SSW) 2,296 6.4 -9.5°
Sets 04:28:26 0° 201° (SSW) 3,220 7.2 -9.0°
